Location: Karcze
(52.0945°N, 22.4786°E)
Time: 23:09:09
(UTC+00:00)

Transit 2A Rocket - Pass Details

Date: 31 July 2021
Orbit: 586 x 917 km, 66.7° (Epoch: 26 September)

Event Time Altitude Azimuth Distance (km) Brightness Sun altitude
Rises 19:46:37 0° 321° (NW) 3,171 10.5 -10.7°
Reaches altitude 10° 19:49:02 10° 328° (NNW) 2,299 9.0 -11.0°
Maximum altitude 19:54:03 42° 39° (NE) 1,151 6.0 -11.5°
Enters shadow 19:59:21 11° 109° (ESE) 2,437 7.1 -12.0°
Drops below altitude 10° 19:59:30 10° 110° (ESE) 2,492 - -12.0°
Sets 20:02:13 0° 117° (ESE) 3,467 - -12.3°
